TimeGMT,TemperatureF,Dew PointF,Humidity,Sea Level PressureIn,VisibilityMPH,Wind Direction,Wind SpeedMPH,Gust SpeedMPH,PrecipitationIn,Events,Conditions,WindDirDegrees,DateUTC
12:00 AM,39,39,100,29.78,,WSW,4.5,,,,,240,2012-11-17 00:00:00
6:00 AM,36,36,98,29.75,25,SW,4.5,,,,Scattered Clouds,220,2012-11-17 06:00:00
6:00 AM,35.6,35.6,100,29.71,6.2,SW,4.6,-,N/A,,Partly Cloudy,220,2012-11-17 06:00:00
7:00 AM,35.6,35.6,100,29.71,6.2,SW,6.9,-,N/A,,Partly Cloudy,230,2012-11-17 07:00:00
8:00 AM,37.4,33.8,87,29.71,6.2,WSW,9.2,-,N/A,Rain,Light Rain Showers,250,2012-11-17 08:00:00
8:30 AM,35.6,33.8,93,29.71,6.2,SW,4.6,-,N/A,Rain,Light Rain Showers,220,2012-11-17 08:30:00
9:00 AM,35.6,33.8,93,29.71,6.2,SSW,4.6,-,N/A,,Partly Cloudy,210,2012-11-17 09:00:00
9:30 AM,37.4,33.8,87,29.71,6.2,SSW,6.9,-,N/A,,Scattered Clouds,200,2012-11-17 09:30:00
10:00 AM,37.4,35.6,93,29.71,6.2,WSW,6.9,-,N/A,,Scattered Clouds,250,2012-11-17 10:00:00
10:30 AM,37.4,35.6,93,29.71,6.2,WSW,10.4,-,N/A,,Partly Cloudy,250,2012-11-17 10:30:00
11:00 AM,41.0,37.4,87,29.71,6.2,SSW,6.9,-,N/A,,Partly Cloudy,210,2012-11-17 11:00:00
11:30 AM,41.0,37.4,87,29.71,6.2,SW,10.4,-,N/A,,Scattered Clouds,230,2012-11-17 11:30:00
12:00 PM,40,36,82,29.75,19,SW,11.2,,,,Partly Cloudy,230,2012-11-17 12:00:00
12:00 PM,41.0,37.4,87,29.71,6.2,SW,11.5,-,N/A,,Partly Cloudy,230,2012-11-17 12:00:00
12:30 PM,41.0,37.4,87,29.71,2.8,WSW,13.8,-,N/A,Rain,Light Rain Showers,240,2012-11-17 12:30:00
1:00 PM,41.0,37.4,87,29.71,6.2,SW,9.2,-,N/A,,Scattered Clouds,230,2012-11-17 13:00:00
1:30 PM,41.0,37.4,87,29.71,6.2,WSW,12.7,-,N/A,,Partly Cloudy,250,2012-11-17 13:30:00
2:00 PM,42.8,37.4,81,29.71,6.2,WSW,12.7,-,N/A,,Scattered Clouds,250,2012-11-17 14:00:00
2:30 PM,41.0,35.6,81,29.71,6.2,WSW,17.3,-,N/A,,Partly Cloudy,250,2012-11-17 14:30:00
3:00 PM,41.0,35.6,81,29.71,6.2,WSW,11.5,-,N/A,,Partly Cloudy,240,2012-11-17 15:00:00
3:30 PM,41.0,35.6,81,29.71,6.2,WSW,11.5,-,N/A,,Partly Cloudy,240,2012-11-17 15:30:00
4:00 PM,39.2,35.6,87,29.74,6.2,WSW,11.5,-,N/A,,Scattered Clouds,250,2012-11-17 16:00:00
4:30 PM,41.0,35.6,81,29.74,6.2,WSW,6.9,-,N/A,,Partly Cloudy,250,2012-11-17 16:30:00
5:00 PM,37.4,35.6,93,29.74,6.2,SW,6.9,-,N/A,,Partly Cloudy,230,2012-11-17 17:00:00
6:00 PM,36,34,89,29.79,19,WSW,8.9,,,,Partly Cloudy,250,2012-11-17 18:00:00